| time (UTC) | temp F | wind direction | speed knots | gust knots | rain 1hr in | rain 24hr in | rain mn in | humidity % | barometer mb |
| 20260505032326 | 73 | 171 | 4.3 | 14.8 | 0.00 | 0.00 | 0.00 | 71 | 1009.2 |
| 20260505031829 | 73 | 169 | 4.3 | 7.8 | 0.00 | 0.00 | 0.00 | 71 | 1009.0 |
| 20260505031333 | 73 | 180 | 4.3 | 7.8 | 0.00 | 0.00 | 0.00 | 71 | 1009.1 |
| 20260505030837 | 73 | 180 | 3.5 | 8.7 | 0.00 | 0.00 | 0.00 | 71 | 1008.9 |
| 20260505030321 | 73 | 150 | 3.5 | 8.7 | 0.00 | 0.00 | 0.00 | 71 | 1008.9 |
| 20260505025826 | 73 | 182 | 4.3 | 8.7 | 0.00 | 0.00 | 0.00 | 71 | 1008.9 |
| 20260505025333 | 74 | 148 | 5.2 | 8.7 | 0.00 | 0.00 | 0.00 | 70 | 1009.0 |
| 20260505024840 | 74 | 188 | 5.2 | 9.6 | 0.00 | 0.00 | 0.00 | 70 | 1009.0 |
| 20260505024325 | 74 | 112 | 5.2 | 9.6 | 0.00 | 0.00 | 0.00 | 70 | 1009.0 |
| 20260505023850 | 74 | 165 | 4.3 | 9.6 | 0.00 | 0.00 | 0.00 | 70 | 1008.9 |
| 20260505023343 | 74 | 169 | 5.2 | 9.6 | 0.00 | 0.00 | 0.00 | 70 | 1008.8 |
| 20260505022847 | 74 | 146 | 4.3 | 8.7 | 0.00 | 0.00 | 0.00 | 70 | 1008.9 |
| 20260505022329 | 74 | 151 | 5.2 | 8.7 | 0.00 | 0.00 | 0.00 | 70 | 1008.9 |
| 20260505021834 | 74 | 167 | 5.2 | 8.7 | 0.00 | 0.00 | 0.00 | 69 | 1008.8 |
| 20260505021321 | 74 | 164 | 3.5 | 9.6 | 0.00 | 0.00 | 0.00 | 69 | 1008.8 |
| 20260505020828 | 74 | 198 | 5.2 | 10.4 | 0.00 | 0.00 | 0.00 | 69 | 1008.8 |
| 20260505020334 | 75 | 169 | 4.3 | 11.3 | 0.00 | 0.00 | 0.00 | 69 | 1008.8 |
| 20260505015819 | 75 | 152 | 6.1 | 11.3 | 0.00 | 0.00 | 0.00 | 69 | 1008.7 |
| 20260505015323 | 75 | 219 | 5.2 | 11.3 | 0.00 | 0.00 | 0.00 | 69 | 1008.6 |
| 20260505014827 | 75 | 169 | 5.2 | 12.2 | 0.00 | 0.00 | 0.00 | 68 | 1008.5 |
| 20260505014352 | 75 | 164 | 4.3 | 9.6 | 0.00 | 0.00 | 0.00 | 68 | 1008.5 |
| 20260505013837 | 75 | 162 | 6.1 | 8.7 | 0.00 | 0.00 | 0.00 | 68 | 1008.6 |
| 20260505013324 | 76 | 170 | 4.3 | 8.7 | 0.00 | 0.00 | 0.00 | 68 | 1008.5 |
| 20260505012829 | 76 | 184 | 4.3 | 10.4 | 0.00 | 0.00 | 0.00 | 68 | 1008.6 |
| 20260505012337 | 76 | 140 | 6.1 | 10.4 | 0.00 | 0.00 | 0.00 | 68 | 1008.5 |
| 20260505011824 | 76 | 159 | 3.5 | 8.7 | 0.00 | 0.00 | 0.00 | 68 | 1008.6 |
| 20260505011329 | 76 | 200 | 5.2 | 14.8 | 0.00 | 0.00 | 0.00 | 68 | 1008.5 |
| 20260505010903 | 76 | 164 | 5.2 | 14.8 | 0.00 | 0.00 | 0.00 | 68 | 1008.4 |
| 20260505010327 | 76 | 173 | 5.2 | 9.6 | 0.00 | 0.00 | 0.00 | 68 | 1008.5 |
| 20260505005836 | 76 | 166 | 5.2 | 8.7 | 0.00 | 0.00 | 0.00 | 67 | 1008.4 |
| 20260505005322 | 77 | 131 | 6.1 | 12.2 | 0.00 | 0.00 | 0.00 | 67 | 1008.4 |
| 20260505004828 | 77 | 146 | 4.3 | 11.3 | 0.00 | 0.00 | 0.00 | 67 | 1008.3 |
| 20260505004333 | 77 | 186 | 5.2 | 11.3 | 0.00 | 0.00 | 0.00 | 67 | 1008.4 |
| 20260505003823 | 77 | 144 | 4.3 | 9.6 | 0.00 | 0.00 | 0.00 | 67 | 1008.4 |
| 20260505003329 | 77 | 126 | 5.2 | 10.4 | 0.00 | 0.00 | 0.00 | 67 | 1008.4 |
| 20260505002837 | 78 | 117 | 3.5 | 10.4 | 0.00 | 0.00 | 0.00 | 67 | 1008.4 |
| 20260505002337 | 78 | 202 | 5.2 | 8.7 | 0.00 | 0.00 | 0.00 | 67 | 1008.6 |
| 20260505001823 | 78 | 138 | 4.3 | 8.7 | 0.00 | 0.00 | 0.00 | 67 | 1008.7 |
| 20260505001325 | 78 | 190 | 4.3 | 12.2 | 0.00 | 0.00 | 0.00 | 67 | 1008.7 |
| 20260505000831 | 78 | 117 | 7.8 | 12.2 | 0.00 | 0.00 | 0.00 | 67 | 1008.7 |
| 20260505000340 | 78 | 187 | 5.2 | 13.0 | 0.00 | 0.00 | 0.00 | 67 | 1008.7 |
| 20260504235852 | 79 | 192 | 6.1 | 13.0 | 0.00 | 0.00 | 0.00 | 67 | 1008.8 |
| 20260504235332 | 79 | 153 | 6.1 | 13.0 | 0.00 | 0.00 | 0.00 | 67 | 1008.9 |
| 20260504234820 | 79 | 204 | 4.3 | 13.0 | 0.00 | 0.00 | 0.00 | 67 | 1008.9 |
| 20260504234329 | 79 | 133 | 7.0 | 13.0 | 0.00 | 0.00 | 0.00 | 67 | 1008.8 |
| 20260504233838 | 79 | 192 | 5.2 | 11.3 | 0.00 | 0.00 | 0.00 | 67 | 1008.9 |
| 20260504233327 | 79 | 182 | 6.1 | 13.0 | 0.00 | 0.00 | 0.00 | 67 | 1009.0 |
| 20260504232832 | 79 | 198 | 7.0 | 13.9 | 0.00 | 0.00 | 0.00 | 67 | 1008.9 |
| 20260504232318 | 79 | 199 | 5.2 | 13.9 | 0.00 | 0.00 | 0.00 | 67 | 1008.9 |
| 20260504231827 | 79 | 178 | 5.2 | 12.2 | 0.00 | 0.00 | 0.00 | 67 | 1009.0 |
| 20260504231351 | 79 | 149 | 5.2 | 10.4 | 0.00 | 0.00 | 0.00 | 67 | 1008.9 |
| 20260504230817 | 79 | 157 | 5.2 | 10.4 | 0.00 | 0.00 | 0.00 | 67 | 1008.8 |
| 20260504230322 | 79 | 151 | 5.2 | 10.4 | 0.00 | 0.00 | 0.00 | 67 | 1008.9 |
| 20260504225832 | 79 | 166 | 4.3 | 10.4 | 0.00 | 0.00 | 0.00 | 67 | 1009.0 |
| 20260504225335 | 79 | 174 | 5.2 | 10.4 | 0.00 | 0.00 | 0.00 | 67 | 1009.2 |
| 20260504224825 | 79 | 179 | 6.1 | 13.9 | 0.00 | 0.00 | 0.00 | 67 | 1009.3 |
| 20260504224326 | 79 | 161 | 5.2 | 13.9 | 0.00 | 0.00 | 0.00 | 67 | 1009.2 |
| 20260504223832 | 80 | 144 | 5.2 | 11.3 | 0.00 | 0.00 | 0.00 | 67 | 1009.3 |
| 20260504223317 | 80 | 159 | 6.1 | 11.3 | 0.00 | 0.00 | 0.00 | 67 | 1009.5 |
| 20260504222825 | 79 | 146 | 5.2 | 13.0 | 0.00 | 0.00 | 0.00 | 67 | 1009.4 |
| 20260504222326 | 79 | 169 | 4.3 | 13.0 | 0.00 | 0.00 | 0.00 | 67 | 1009.5 |
| 20260504221833 | 79 | 181 | 4.3 | 13.0 | 0.00 | 0.00 | 0.00 | 67 | 1009.5 |
| 20260504221318 | 79 | 180 | 6.1 | 14.8 | 0.00 | 0.00 | 0.00 | 67 | 1009.5 |
| 20260504220850 | 79 | 120 | 6.1 | 14.8 | 0.00 | 0.00 | 0.00 | 67 | 1009.6 |
| 20260504220333 | 79 | 183 | 7.8 | 15.6 | 0.00 | 0.00 | 0.00 | 67 | 1009.7 |
| 20260504215839 | 79 | 146 | 7.8 | 15.6 | 0.00 | 0.00 | 0.00 | 67 | 1009.7 |
| 20260504215321 | 79 | 236 | 6.1 | 11.3 | 0.00 | 0.00 | 0.00 | 67 | 1009.7 |
| 20260504214826 | 79 | 161 | 7.0 | 13.0 | 0.00 | 0.00 | 0.00 | 67 | 1009.7 |
| 20260504214328 | 80 | 142 | 5.2 | 13.0 | 0.00 | 0.00 | 0.00 | 67 | 1009.9 |
| 20260504213829 | 80 | 190 | 7.0 | 13.0 | 0.00 | 0.00 | 0.00 | 67 | 1010.1 |
| 20260504213336 | 79 | 153 | 2.6 | 9.6 | 0.00 | 0.00 | 0.00 | 67 | 1010.1 |
| 20260504212848 | 79 | 150 | 5.2 | 12.2 | 0.00 | 0.00 | 0.00 | 67 | 1010.2 |
| 20260504212329 | 79 | 175 | 5.2 | 10.4 | 0.00 | 0.00 | 0.00 | 67 | 1010.2 |
| 20260504211833 | 80 | 185 | 6.1 | 12.2 | 0.00 | 0.00 | 0.00 | 67 | 1010.3 |
| 20260504211335 | 80 | 207 | 6.1 | 16.5 | 0.00 | 0.00 | 0.00 | 67 | 1010.4 |
| 20260504210819 | 80 | 181 | 6.1 | 16.5 | 0.00 | 0.00 | 0.00 | 67 | 1010.5 |
| 20260504210330 | 80 | 205 | 6.1 | 12.2 | 0.00 | 0.00 | 0.00 | 67 | 1010.7 |
| 20260504205833 | 80 | 155 | 6.1 | 13.0 | 0.00 | 0.00 | 0.00 | 68 | 1010.8 |
| 20260504205337 | 80 | 216 | 7.0 | 15.6 | 0.00 | 0.00 | 0.00 | 68 | 1010.8 |
| 20260504204842 | 79 | 208 | 6.1 | 14.8 | 0.00 | 0.00 | 0.00 | 67 | 1010.8 |
| 20260504204351 | 79 | 184 | 5.2 | 14.8 | 0.00 | 0.00 | 0.00 | 67 | 1011.1 |
| 20260504203839 | 79 | 211 | 7.0 | 17.4 | 0.00 | 0.00 | 0.00 | 68 | 1011.2 |
| 20260504203322 | 79 | 197 | 6.1 | 17.4 | 0.00 | 0.00 | 0.00 | 68 | 1011.2 |
| 20260504202855 | 79 | 217 | 7.8 | 15.6 | 0.00 | 0.00 | 0.00 | 68 | 1011.3 |
| 20260504202337 | 79 | 196 | 4.3 | 15.6 | 0.00 | 0.00 | 0.00 | 68 | 1011.2 |
| 20260504201844 | 79 | 150 | 7.8 | 13.9 | 0.00 | 0.00 | 0.00 | 68 | 1011.3 |
| 20260504201325 | 79 | 175 | 4.3 | 13.9 | 0.00 | 0.00 | 0.00 | 68 | 1011.6 |
| 20260504200831 | 79 | 193 | 4.3 | 10.4 | 0.00 | 0.00 | 0.00 | 68 | 1011.7 |
| 20260504200317 | 79 | 134 | 5.2 | 13.9 | 0.00 | 0.00 | 0.00 | 68 | 1011.7 |
| 20260504195824 | 79 | 202 | 7.0 | 13.9 | 0.00 | 0.00 | 0.00 | 69 | 1011.6 |
| 20260504195327 | 79 | 163 | 7.0 | 13.9 | 0.00 | 0.00 | 0.00 | 69 | 1011.9 |
| 20260504194833 | 79 | 209 | 5.2 | 11.3 | 0.00 | 0.00 | 0.00 | 69 | 1012.0 |
| 20260504194318 | 79 | 187 | 6.1 | 11.3 | 0.00 | 0.00 | 0.00 | 69 | 1012.1 |
| 20260504193825 | 79 | 195 | 4.3 | 13.9 | 0.00 | 0.00 | 0.00 | 69 | 1012.2 |
| 20260504193329 | 79 | 149 | 5.2 | 12.2 | 0.00 | 0.00 | 0.00 | 69 | 1012.2 |
| 20260504192834 | 79 | 187 | 5.2 | 13.9 | 0.00 | 0.00 | 0.00 | 69 | 1012.3 |
| 20260504192319 | 79 | 199 | 6.1 | 13.0 | 0.00 | 0.00 | 0.00 | 70 | 1012.4 |
| 20260504191850 | 79 | 153 | 6.1 | 13.9 | 0.00 | 0.00 | 0.00 | 70 | 1012.5 |
| 20260504191337 | 79 | 134 | 7.0 | 13.9 | 0.00 | 0.00 | 0.00 | 70 | 1012.4 |
| 20260504190844 | 79 | 227 | 6.1 | 13.9 | 0.00 | 0.00 | 0.00 | 70 | 1012.3 |
| 20260504190326 | 79 | 161 | 6.1 | 14.8 | 0.00 | 0.00 | 0.00 | 70 | 1012.5 |
| 20260504185840 | 79 | 193 | 6.1 | 14.8 | 0.00 | 0.00 | 0.00 | 70 | 1012.7 |
| 20260504185343 | 79 | 138 | 7.0 | 13.0 | 0.00 | 0.00 | 0.00 | 71 | 1012.6 |
| 20260504184846 | 79 | 222 | 7.0 | 12.2 | 0.00 | 0.00 | 0.00 | 71 | 1012.7 |
| 20260504184327 | 79 | 173 | 7.0 | 17.4 | 0.00 | 0.00 | 0.00 | 71 | 1012.8 |
| 20260504183902 | 79 | 192 | 7.0 | 14.8 | 0.00 | 0.00 | 0.00 | 71 | 1013.0 |
| 20260504183346 | 78 | 206 | 4.3 | 14.8 | 0.00 | 0.00 | 0.00 | 72 | 1013.2 |
| 20260504182849 | 78 | 176 | 2.6 | 15.6 | 0.00 | 0.00 | 0.00 | 72 | 1013.2 |
| 20260504182355 | 78 | 149 | 7.0 | 15.6 | 0.00 | 0.00 | 0.00 | 72 | 1013.2 |
| 20260504181842 | 78 | 198 | 6.1 | 14.8 | 0.00 | 0.00 | 0.00 | 72 | 1013.3 |
| 20260504181325 | 78 | 171 | 7.8 | 16.5 | 0.00 | 0.00 | 0.00 | 72 | 1013.1 |
| 20260504180830 | 78 | 200 | 7.8 | 16.5 | 0.00 | 0.00 | 0.00 | 73 | 1013.3 |
| 20260504180336 | 77 | 181 | 6.1 | 17.4 | 0.00 | 0.00 | 0.00 | 73 | 1013.3 |
| 20260504175824 | 77 | 237 | 8.7 | 17.4 | 0.00 | 0.00 | 0.00 | 73 | 1013.4 |
| 20260504175325 | 77 | 153 | 6.1 | 17.4 | 0.00 | 0.00 | 0.00 | 73 | 1013.5 |
| 20260504174828 | 77 | 186 | 8.7 | 13.0 | 0.00 | 0.00 | 0.00 | 73 | 1013.7 |
| 20260504174333 | 76 | 213 | 5.2 | 11.3 | 0.00 | 0.00 | 0.00 | 74 | 1013.7 |
| 20260504173839 | 76 | 198 | 7.0 | 19.1 | 0.00 | 0.00 | 0.00 | 74 | 1013.7 |
| 20260504173329 | 76 | 226 | 5.2 | 16.5 | 0.00 | 0.00 | 0.00 | 74 | 1013.8 |
| 20260504172832 | 76 | 140 | 7.0 | 13.9 | 0.00 | 0.00 | 0.00 | 74 | 1013.8 |
| 20260504172335 | 76 | 157 | 4.3 | 13.9 | 0.00 | 0.00 | 0.00 | 74 | 1013.9 |
| 20260504171849 | 76 | 190 | 5.2 | 16.5 | 0.00 | 0.00 | 0.00 | 74 | 1014.0 |
| 20260504171329 | 76 | 208 | 8.7 | 16.5 | 0.00 | 0.00 | 0.00 | 75 | 1014.2 |
| 20260504170849 | 76 | 190 | 6.1 | 13.9 | 0.00 | 0.00 | 0.00 | 75 | 1014.2 |
| 20260504170335 | 75 | 148 | 5.2 | 19.1 | 0.00 | 0.00 | 0.00 | 75 | 1014.2 |
| 20260504160325 | 73 | 178 | 7.8 | 15.6 | 0.00 | 0.00 | 0.00 | 76 | 1014.8 |
| 20260504150821 | 71 | 172 | 6.1 | 12.2 | 0.00 | 0.00 | 0.00 | 77 | 1015.0 |
| 20260504150320 | 71 | 196 | 5.2 | 12.2 | 0.00 | 0.00 | 0.00 | 77 | 1015.1 |
| 20260504141328 | 67 | 213 | 5.2 | 11.3 | 0.00 | 0.00 | 0.00 | 76 | 1015.2 |
| 20260504140831 | 66 | 144 | 4.3 | 10.4 | 0.00 | 0.00 | 0.00 | 76 | 1015.3 |
| 20260504140336 | 66 | 242 | 5.2 | 10.4 | 0.00 | 0.00 | 0.00 | 76 | 1015.2 |
| 20260504130318 | 59 | 173 | 4.3 | 7.0 | 0.00 | 0.00 | 0.00 | 74 | 1015.2 |
| 20260504110337 | 56 | 143 | 0.9 | 1.7 | 0.00 | 0.00 | 0.00 | 70 | 1014.8 |